STARLINK-33708, 63405

Orbit data source: Space-Track

STARLINK-33708, 63405 is a payload satellite owned by SpaceX/Seattle (US) in LEO that was launched on Mon, 31 Mar 2025 UTC via an FALCON 9 launch vehicle from the Air Force Eastern Test Range (AFETR). Payload-class satellites include a variety of spacecraft equipped with specific instruments for various scientific and technological missions. These include communications satellites like Starlink; space stations such as the ISS; scientific satellites like the Hubble; Earth observation satellites from companies like Planet Labs, Umbra, and HawkEye 360; GPS; miniature CubeSats for education and research; and military/defense satellites.

Loading next visibility...
Identifier
63405, 2025-065G
Orbit
LEO
Country
Flag of USUS
Related business
Manufacturer
SpaceX/Seattle
Mission
Operational Commercial Communications
Bus & Motor
STARLINK V2MO, Unknown motor
Mass
575 kg wet, ~530 kg dry
Launch date (UTC)
2025-03-31 (1 year ago)
Launch vehicle
FALCON 9
Launch site
Air Force Eastern Test Range (AFETR)
Object type
Payload
Rocket body
Debris
Shape & HBR
Box + 2 Pan, 17.7 m
Radar Cross Section
36.964 m², Large (>1 m²)

Expand to show TLE details & history
Last TLE update: 2 days ago

TLE from 2 days ago
0 STARLINK-33708
1 63405U 25065G   26170.25162710  .00012274  00000-0  45455-3 0  9998
2 63405  42.9980 253.4151 0000642 281.5319  78.5461 15.27596586 68373
Epoch: 2026-06-19T06:02Z
TLE epoch observation values (Epoch: 2026-06-19T06:02:20.581Z)
Latitude
0.00002°
Longitude
-104.65392°
Altitude
482.687 km
Speed
7.626 km/s
True Right ascension
16h 53m 39s
True Declination
0° 00' 00"
Sunlit
Object was in full shadow at epoch
Visualization orbit readout
Latitude
Unknown
Longitude
Unknown
Altitude
Unknown
Speed
Unknown
Apparent Right ascension
Unknown
Apparent Declination
Unknown
Sunlit
N/A
Visualization observer readout
Local Sidereal Time
07:19:47
Azimuth
Unknown
Elevation
Unknown
Doppler factor
Unknown
Orbital elements
Apogee altitude
485.386 km
Perigee altitude
484.504 km
Semi-major axis
6,863.082 km
Eccentricity
0.00006
Inclination
42.998°
RAAN
253.4151°
Arg. of periapsis
281.5319°
True anomaly
78.55331°
Mean anomaly
78.5461°
Eccentric anomaly
78.54971°
Mean motion
3.81737 °/min
Orbital period
94.31 mins
BSTAR
0.00045455
Loading maneuver chart data...
Computing Atmospheric mass density...
Loading historical data...
Loading historical data...
Loading historical data...
Loading historical data...
Loading historical data...
Loading historical data...
Loading historical data...

Documentation

Showing up to 5 results
|